"Pseudo-MPEC" for gb00756

Created 2024 Oct 2 22:22:21 UT using Find_Orb

Click here for an explanation of pseudo-MPECs

 
 Astrometry: 
     gb00756*KC2024 10 01.81023 01 20 41.05 +45 05 05.3    ~A1K7 19.6 GXNEOCPL51
     gb00756 KC2024 10 01.81114 01 20 43.81 +45 05 02.7    ~A1K7 20.1 GXNEOCPL51
     gb00756 KC2024 10 01.81202 01 20 46.44 +45 05 00.4    ~A1K7 20.5 GXNEOCPL51
     gb00756 KC2024 10 01.82153 01 21 14.47 +45 04 29.7    ~A1KM 19.1 GXNEOCPL51
     gb00756 KC2024 10 01.82246 01 21 17.17 +45 04 26.5    ~A1KM 19.3 GXNEOCPL51
     gb00756 KC2024 10 01.82333 01 21 19.69 +45 04 23.5    ~A1KM 19.4 GXNEOCPL51
     gb00756 KC2024 10 01.88520 01 24 09.67 +45 00 27.8    ~A1Lb 19.7 GXNEOCPL51
     gb00756 KC2024 10 01.88634 01 24 12.64 +45 00 22.8    ~A1Lb 19.4 GXNEOCPL51
     gb00756 KC2024 10 01.88748 01 24 15.61 +45 00 18.3    ~A1Lb 19.4 GXNEOCPL51
     gb00756 KC2024 10 02.18486801 36 47.21 +44 36 24.0    ~A25M       VNEOCPH21
     gb00756 KC2024 10 02.19605301 37 06.64 +44 35 49.1    ~A25M 20.4 GVNEOCPH21
     gb00756 KC2024 10 02.19884901 37 11.45 +44 35 40.5    ~A25M 20.5 GVNEOCPH21
     gb00756 KC2024 10 02.20164501 37 16.21 +44 35 31.4    ~A25M 20.5 GVNEOCPH21
     gb00756 KB2024 10 02.21101 01 37 38.928+44 34 40.69   ~A25q 20.5 rZNEOCPH36
     gb00756 KB2024 10 02.22286 01 37 58.843+44 34 04.73   ~A25q 20.4 rZNEOCPH36
     gb00756 KC2024 10 02.83559 01 52 59.61 +43 54 22.9    ~A2Kq 21.0 GXNEOCPL51
     gb00756 KC2024 10 02.83966 01 53 03.16 +43 54 15.0    ~A2Kq 20.3 GXNEOCPL51
     gb00756 KC2024 10 02.84385 01 53 06.95 +43 54 06.2    ~A2Kq 20.8 GXNEOCPL51

Station data:
(H21) Astronomical Research Observatory, Westfield  (N39.483054 W87.968270)
   US/Illinois.  Observer R. Holmes. Measurers S. Foglia, L. Buzzi, T.
   Linder, R. Holmes. 0.76-m f/3.0 astrograph + CCD0.81-m f/4.0 astrograph +
   CCD0.61-m f/4.5 astrograph + CCD0.40-m f/5.32 astrograph + CCD.
(H36) Sandlot Observatory, Scranton  (N38.797718 W95.706550)  US/Kansas.
   Observer G. Hug. 0.56-m reflector + CCD.
(L51) MARGO, Nauchnij  (N44.729397 E34.016400)  Ukraine.  Observer G. Borisov.
    0.4-m f/2.3 astrograph + CCD.

Orbital elements:  gb00756
   Perihelion 2024 Sep 8.58750 +/- 0.00537 TT = 14:05:59 (JD 2460562.08750)
Epoch 2024 Oct  2.0 TT = JDT 2460585.5   Earth MOID: 0.0008      AutoNEOCP
M   6.70209415 +/- 0.027            (J2000 ecliptic)
n   0.28626132 +/- 0.00112          Peri.  332.66041 +/- 0.0045
a   2.28013696 +/- 0.00595          Node     6.69907 +/- 0.00057
e   0.5793295 +/- 0.00113           Incl.    6.99069 +/- 0.009
P   3.44303                H 28.54  G  0.15   U  8.2
q 0.95918632 +/- 6.56e-5    Q 3.60108760 +/- 0.012
From 18 observations 2024 Oct. 1-2 (24.8 hr); mean residual 0".37
Residuals in arcseconds: 
241001 L51  .81-  .45-    241001 L51  .26+  .28-    241002 H21  .20+  .22+    
241001 L51  .29-  .22-    241001 L51  .33+  .35-    241002 H36  .67-  .29-    
241001 L51  .15-  .24+    241001 L51  .45+  .10+    241002 H36  .29+  .41+    
241001 L51  .22+  .03+    241002 H21  .05-  .49+    241002 L51  .63+  .10+    
241001 L51  .11+  .11-    241002 H21  .11+  .07+    241002 L51  .64-  .14-    
241001 L51  .00   .23-    241002 H21  .30+  .35+    241002 L51  .17-  .92-    

Ephemerides (geocentric):
Date (UTC) HH   RA             Dec           delta  r     elong  mag " sig PA
---- --------  ------------   ------------  ------ ------ -----  --- --------
2024 10 02 22  01 53 59.696   +43 51 36.12  .01552 1.0120 136.5 21.2 .503  90
2024 10 02 23  01 54 41.634   +43 49 34.58  .01578 1.0122 136.5 21.2 .508  90
2024 10 03 00  01 55 22.192   +43 47 35.83  .01603 1.0123 136.5 21.3 .514  90
2024 10 03 01  01 56 01.434   +43 45 39.77  .01629 1.0125 136.5 21.3 .519  90
2024 10 03 02  01 56 39.423   +43 43 46.32  .01654 1.0127 136.5 21.3 .525  90
2024 10 03 03  01 57 16.216   +43 41 55.40  .01679 1.0129 136.5 21.4 .530  90
2024 10 03 04  01 57 51.868   +43 40 06.94  .01705 1.0130 136.5 21.4 .536  90
2024 10 03 05  01 58 26.431   +43 38 20.85  .01730 1.0132 136.5 21.4 .542  89
2024 10 03 06  01 58 59.952   +43 36 37.06  .01756 1.0134 136.5 21.4 .548  89
2024 10 03 07  01 59 32.477   +43 34 55.49  .01781 1.0136 136.5 21.5 .554  89
2024 10 03 08  02 00 04.049   +43 33 16.09  .01807 1.0137 136.5 21.5 .560  89
2024 10 03 09  02 00 34.708   +43 31 38.78  .01832 1.0139 136.5 21.5 .566  89
2024 10 03 10  02 01 04.494   +43 30 03.50  .01857 1.0141 136.5 21.6 .572  89
2024 10 03 11  02 01 33.440   +43 28 30.18  .01883 1.0143 136.5 21.6 .578  89
2024 10 03 12  02 02 01.583   +43 26 58.77  .01908 1.0145 136.5 21.6 .584  89
2024 10 03 13  02 02 28.954   +43 25 29.21  .01934 1.0146 136.5 21.7 .590  89
2024 10 03 14  02 02 55.584   +43 24 01.43  .01959 1.0148 136.6 21.7 .596  89
2024 10 03 15  02 03 21.501   +43 22 35.40  .01985 1.0150 136.6 21.7 .602  89
2024 10 03 16  02 03 46.735   +43 21 11.04  .02010 1.0152 136.6 21.7 .608  89
2024 10 03 17  02 04 11.309   +43 19 48.32  .02036 1.0153 136.6 21.8 .614  89
2024 10 03 18  02 04 35.251   +43 18 27.19  .02061 1.0155 136.6 21.8 .620  90
2024 10 03 19  02 04 58.582   +43 17 07.59  .02087 1.0157 136.6 21.8 .626  90
2024 10 03 20  02 05 21.326   +43 15 49.48  .02112 1.0159 136.6 21.8 .631  90
2024 10 03 21  02 05 43.504   +43 14 32.83  .02138 1.0161 136.6 21.9 .637  90
2024 10 03 22  02 06 05.136   +43 13 17.58  .02163 1.0162 136.6 21.9 .643  90
2024 10 03 23  02 06 26.241   +43 12 03.69  .02189 1.0164 136.7 21.9 .649  90
2024 10 04 00  02 06 46.839   +43 10 51.13  .02214 1.0166 136.7 21.9 .654  90
2024 10 04 01  02 07 06.947   +43 09 39.87  .02240 1.0168 136.7 22.0 .660  90
2024 10 04 02  02 07 26.581   +43 08 29.85  .02265 1.0169 136.7 22.0 .665  90
2024 10 04 03  02 07 45.757   +43 07 21.05  .02291 1.0171 136.7 22.0 .671  90
2024 10 04 04  02 08 04.492   +43 06 13.43  .02316 1.0173 136.7 22.0 .676  90
2024 10 04 05  02 08 22.799   +43 05 06.96  .02342 1.0175 136.7 22.1 .682  90
2024 10 04 06  02 08 40.693   +43 04 01.60  .02367 1.0177 136.8 22.1 .687  90
2024 10 04 07  02 08 58.187   +43 02 57.34  .02393 1.0179 136.8 22.1 .693  90
2024 10 04 08  02 09 15.294   +43 01 54.13  .02418 1.0180 136.8 22.1 .698  90
2024 10 04 09  02 09 32.026   +43 00 51.94  .02444 1.0182 136.8 22.2 .703  90
2024 10 04 10  02 09 48.395   +42 59 50.76  .02469 1.0184 136.8 22.2 .708  90
2024 10 04 11  02 10 04.412   +42 58 50.55  .02495 1.0186 136.8 22.2 .713  90
2024 10 04 12  02 10 20.088   +42 57 51.29  .02521 1.0188 136.9 22.2 .718  90
2024 10 04 13  02 10 35.434   +42 56 52.95  .02546 1.0189 136.9 22.2 .723  90
2024 10 04 14  02 10 50.459   +42 55 55.50  .02572 1.0191 136.9 22.3 .728  90
2024 10 04 15  02 11 05.173   +42 54 58.93  .02597 1.0193 136.9 22.3 .733  90
2024 10 04 16  02 11 19.586   +42 54 03.21  .02623 1.0195 136.9 22.3 .738  90
2024 10 04 17  02 11 33.705   +42 53 08.32  .02648 1.0197 136.9 22.3 .743  90
2024 10 04 18  02 11 47.540   +42 52 14.24  .02674 1.0199 137.0 22.4 .747  90
2024 10 04 19  02 12 01.098   +42 51 20.95  .02699 1.0200 137.0 22.4 .752  90
2024 10 04 20  02 12 14.388   +42 50 28.42  .02725 1.0202 137.0 22.4 .757  90
2024 10 04 21  02 12 27.418   +42 49 36.64  .02751 1.0204 137.0 22.4 .761  90